www.pogodaiklimat.ru

Погода и климат >> Архив погоды >> Великобритания >> Kirkwall


АРХИВ ПОГОДЫ в Kirkwall

Время (UTC), дата Ветер
(напр.,м/с)
 
Видим.   Явления Облачность Т
(С)
Тd
(С)
f
(%)
Тe
(С)
Тes
(С)
Комфортность P
(гПа)
Po
(гПа)
Тmin
(С)
Tmax
(С)
R
(мм)
R24
(мм)
S
(см)
13 14.10 ЮЗ 4 35 км н/о +10.0 +6.6 79 +7 +7 тепло 1006.8 1003.6
14 14.10 ЮЗ 4 45 км н/о +10.2 +7.2 82 +8 +8 тепло 1007.3 1004.1
15 14.10 ЮЗ 5 35 км н/о +11.0 +6.6 74 +8 +8 по сезону 1007.3 1004.1
16 14.10 Ю 3 50 км н/о +10.4 +5.5 72 +8 +8 тепло 1007.4 1004.3
17 14.10 Ю 4 45 км н/о +7.4 +5.0 85 +4 +4 по сезону 1007.9 1004.7
18 14.10 Ю 5 30 км н/о +7.2 +5.7 90 +3 +3 по сезону 1008.6 1005.4 +11.4 0.4
19 14.10 Ю 6 45 км н/о +7.2 +5.1 86 +3 +3 тепло 1009.0 1005.8
20 14.10 Ю 6 45 км н/о +7.6 +5.5 87 +3 +3 по сезону 1009.4 1006.3
21 14.10 Ю 5 50 км н/о +7.2 +5.9 91 +3 +3 по сезону 1009.9 1006.7
22 14.10 Ю 5 50 км н/о +7.6 +6.2 91 +4 +4 тепло 1010.2 1007.0
23 14.10 Ю 5 45 км н/о +7.7 +6.4 91 +4 +4 по сезону 1010.3 1007.1
00 15.10 Ю 5 50 км н/о +8.7 +5.9 83 +5 +5 по сезону 1010.4 1007.2
01 15.10 ЮЗ 6 45 км н/о +8.3 +5.6 83 +4 +4 тепло 1010.6 1007.4
02 15.10 ЮЗ 5 50 км н/о +8.2 +5.4 82 +4 +4 по сезону 1011.0 1007.8
03 15.10 Ю 5 50 км н/о +8.5 +5.5 81 +5 +5 по сезону 1010.9 1007.7
04 15.10 Ю 4 45 км н/о +8.2 +5.7 84 +5 +5 тепло 1010.6 1007.4
05 15.10 ЮЗ 6 50 км н/о +8.7 +5.7 81 +5 +5 тепло 1010.6 1007.4
06 15.10 Ю 6 45 км н/о +8.4 +5.6 83 +5 +5 по сезону 1010.9 1007.7 +6.4
07 15.10 ЮЗ 6 45 км н/о +8.5 +5.8 83 +4 +4 тепло 1011.4 1008.3
08 15.10 Ю 5 40 км н/о +8.8 +5.8 81 +6 +6 тепло 1011.7 1008.6
09 15.10 Ю 6 35 км н/о +10.5 +7.3 81 +7 +7 по сезону 1012.2 1009.1
10 15.10 Ю 6 30 км н/о +11.2 +7.2 76 +8 +8 тепло 1012.2 1009.1
11 15.10 ЮЗ 8 35 км н/о +12.0 +7.0 71 +9 +9 тепло 1012.7 1009.5
12 15.10 ЮЗ 7 35 км н/о +12.5 +7.4 71 +10 +10 тепло 1012.7 1009.5
13 15.10 ЮЗ 6 35 км н/о +12.4 +7.4 72 +10 +10 тепло 1012.7 1009.5
14 15.10 ЮЗ 6 45 км н/о +12.1 +7.2 72 +9 +9 тепло 1012.7 1009.5
15 15.10 ЮЗ 4 50 км н/о +12.0 +8.0 76 +10 +10 тепло 1012.8 1009.7
16 15.10 ЮЗ 3 40 км н/о +11.6 +8.0 79 +10 +10 тепло 1013.0 1009.9
17 15.10 ЮЗ 4 45 км н/о +9.7 +6.6 81 +7 +7 тепло 1013.2 1010.0
18 15.10 Ю 5 40 км н/о +8.7 +7.4 92 +5 +5 по сезону 1013.6 1010.5 +13.1
19 15.10 Ю 5 35 км н/о +8.1 +7.0 93 +4 +4 тепло 1013.8 1010.6
20 15.10 Ю 5 45 км н/о +7.8 +6.5 91 +4 +4 по сезону 1013.7 1010.5
21 15.10 Ю 5 50 км н/о +9.0 +7.5 90 +6 +6 по сезону 1013.4 1010.2
22 15.10 Ю 4 40 км н/о +9.1 +8.2 94 +6 +6 тепло 1013.3 1010.1
23 15.10 Ю 5 50 км н/о +10.1 +8.7 91 +7 +7 тепло 1012.5 1009.3
00 16.10 Ю 5 40 км н/о +10.2 +8.4 89 +7 +7 по сезону 1011.9 1008.7
01 16.10 Ю 6 45 км н/о +10.3 +6.8 79 +7 +7 тепло 1011.0 1007.8
02 16.10 Ю 7 30 км н/о +10.0 +8.0 87 +6 +6 тепло 1010.4 1007.2
03 16.10 Ю 7 30 км н/о +9.7 +7.2 84 +6 +6 по сезону 1009.9 1006.8
04 16.10 Ю 7 27 км н/о +9.8 +6.9 82 +6 +6 тепло 1008.9 1005.7
05 16.10 Ю 8
{13}
30 км н/о +9.7 +6.6 81 +6 +6 тепло 1007.5 1004.4
06 16.10 Ю 11 30 км н/о +9.8 +6.1 78 +5 +5 по сезону 1006.6 1003.4 +7.6
07 16.10 Ю 13
{21}
22 км н/о +9.7 +7.2 84 +5 +5 тепло 1005.8 1002.7
08 16.10 Ю 13-18
{19}
27 км н/о +10.0 +7.3 83 +5 +5 по сезону 1005.9 1002.7
09 16.10 Ю 11-16
{17}
29 км н/о +10.1 +7.1 82 +5 +5 по сезону 1004.8 1001.7
10 16.10 Ю 11-17
{17}
16 км слаб. ливневой дождь н/о +10.2 +7.4 83 +6 +6 тепло 1004.6 1001.5
11 16.10 Ю 11
{19}
18 км в посл. час дождь н/о +10.1 +8.6 90 +5 +5 по сезону 1003.2 1000.0
12 16.10 Ю 11
{17}
17 км в посл. час дождь н/о +11.1 +9.2 88 +7 +7 по сезону 1002.8 999.7 0.4
13 16.10 Ю 10
{15}
22 км н/о +11.4 +9.2 86 +7 +7 тепло 1002.0 998.9
14 16.10 Ю 10
{14}
21 км н/о +11.9 +8.7 81 +8 +8 тепло 1001.8 998.7
15 16.10 Ю 10
{14}
23 км н/о +12.5 +8.7 78 +9 +9 по сезону 1001.8 998.7
16 16.10 Ю 8
{14}
18 км н/о +12.6 +9.3 80 +10 +10 тепло 1001.7 998.6
17 16.10 Ю 8 45 км н/о +11.8 +9.2 84 +8 +8 тепло 1002.1 999.0
18 16.10 Ю 7 19 км н/о +11.8 +9.6 86 +9 +9 тепло 1002.6 999.4 +13.0 0.4
19 16.10 Ю 7 30 км н/о +11.8 +9.3 85 +9 +9 тепло 1002.8 999.7
20 16.10 Ю 7 20 км н/о +11.4 +8.9 85 +8 +8 тепло 1003.2 1000.1
21 16.10 Ю 7 27 км н/о +11.0 +8.8 86 +8 +8 по сезону 1003.6 1000.5
22 16.10 Ю 6 35 км н/о +11.0 +8.7 86 +8 +8 тепло 1004.1 1001.0
23 16.10 Ю 6 27 км н/о +10.3 +8.4 88 +7 +7 тепло 1004.4 1001.3
00 17.10 Ю 5 45 км н/о +10.2 +8.7 90 +7 +7 по сезону 1004.9 1001.8
01 17.10 З 7 5000 м морось с дождем н/о +9.5 +8.6 94 +5 +5 тепло 1005.4 1002.3
02 17.10 ЮЗ 6 28 км в посл. час дождь н/о +9.4 +8.7 95 +6 +6 тепло 1006.0 1002.9
03 17.10 ЮЗ 7 23 км в посл. час дождь н/о +9.5 +8.2 92 +6 +6 по сезону 1006.6 1003.4
04 17.10 ЮЗ 6 23 км в посл. час дождь н/о +8.7 +7.3 91 +5 +5 тепло 1007.2 1004.0
05 17.10 З 6 27 км в посл. час дождь н/о +8.4 +7.0 91 +4 +4 по сезону 1007.7 1004.6
06 17.10 ЮЗ 8 23 км в посл. час дождь н/о +8.9 +6.2 83 +5 +5 по сезону 1008.2 1005.1 +8.3 1
07 17.10 ЮЗ 8 20 км н/о +8.4 +6.0 85 +4 +4 тепло 1009.2 1006.0
08 17.10 ЮЗ 8
{15}
24 км в посл. час дождь н/о +8.9 +6.4 84 +5 +5 по сезону 1010.2 1007.1
09 17.10 ЮЗ 8 21 км н/о +9.6 +6.8 83 +5 +5 по сезону 1011.2 1008.1
10 17.10 ЮЗ 9
{14}
35 км слаб. ливневой дождь н/о +8.6 +5.2 79 +4 +4 тепло 1012.2 1009.0
11 17.10 ЮЗ 9
{14}
18 км н/о +9.3 +5.9 79 +5 +5 по сезону 1013.2 1010.0
12 17.10 ЮЗ 11
{14}
<100 м туман н/о +11.6 +6.3 70 +8 +8 по сезону 1013.6 1010.4 0.2
13 17.10 З 11
{14}
35 км в посл. час дождь н/о +11.2 +6.0 70 +7 +7 тепло 1014.3 1011.1
14 17.10 0
{15}
в посл. час дождь со снегом н/о 1011.8
15 17.10 11
{13}
н/о 1015.9 1012.6
16 17.10 З 6
{13}
25 км в посл. час дождь н/о +9.2 +5.6 78 +5 +5 тепло 1016.4 1013.2
17 17.10 З 6 21 км н/о +8.9 +5.5 79 +5 +5 тепло 1017.4 1014.2
18 17.10 З 8
{13}
35 км слаб. ливневой дождь н/о +8.4 +5.1 80 +4 +4 по сезону 1018.3 1015.1
19 17.10 З 5 17 км в посл. час дождь н/о +7.4 +4.7 83 +3 +3 тепло 1019.3 1016.1
20 17.10 З 3 16 км н/о +7.6 +5.6 87 +5 +5 тепло 1020.3 1017.1
21 17.10 ЮЗ 5 24 км в посл. час дождь н/о +8.1 +6.1 87 +4 +4 по сезону 1020.8 1017.6
22 17.10 З 5 25 км в посл. час дождь н/о +7.9 +5.6 85 +4 +4 тепло 1021.3 1018.1
23 17.10 З 8 7000 м ливневой дождь н/о +8.2 +6.6 90 +3 +3 по сезону 1021.7 1018.5
00 18.10 З 5 21 км в посл. час дождь н/о +7.0 +5.1 88 +3 +3 по сезону 1021.9 1018.7 0.6
01 18.10 З 5 23 км н/о +7.8 +5.1 83 +4 +4 тепло 1022.4 1019.2
02 18.10 З 7
{13}
45 км н/о +8.6 +4.6 76 +5 +5 тепло 1022.5 1019.3
03 18.10 З 6 24 км н/о +8.6 +5.3 80 +5 +5 по сезону 1022.8 1019.6
04 18.10 З 3 16 км в посл. час дождь н/о +7.2 +5.2 87 +5 +5 тепло 1023.3 1020.0
05 18.10 З 5 19 км н/о +8.2 +6.6 90 +4 +4 по сезону 1023.6 1020.4
06 18.10 З 6 27 км н/о +9.0 +5.6 79 +5 +5 по сезону 1024.0 1020.8 +7.0 0.6
07 18.10 З 7 26 км в посл. час дождь н/о +8.5 +7.1 91 +4 +4 тепло 1024.5 1021.3
08 18.10 З 6 40 км н/о +9.1 +6.5 84 +5 +5 тепло 1024.7 1021.5
09 18.10 0 н/о 1022.1
11 18.10 0 н/о 1021.8
12 18.10 0 35 км н/о 1021.8 0.2
14 18.10 ЮЗ 7 30 км н/о +10.3 +7.4 82 +7 +7 тепло 1024.8 1021.6
13 18.10 0 н/о 1021.7
15 18.10 Ю 5 27 км н/о +10.2 +6.8 79 +7 +7 по сезону 1024.2 1021.0
16 18.10 Ю 5 25 км н/о +10.4 +6.9 79 +8 +8 тепло 1024.3 1021.1
17 18.10 Ю 5 28 км н/о +9.7 +6.8 82 +7 +7 тепло 1024.2 1021.0
18 18.10 Ю 4 28 км н/о +9.6 +6.8 83 +7 +7 по сезону 1023.7 1020.5 0.2
20 18.10 Ю 4 35 км н/о +8.9 +6.8 87 +6 +6 тепло 1023.1 1019.8
19 18.10 Ю 4 35 км н/о +9.3 +6.6 83 +6 +6 тепло 1023.4 1020.2
21 18.10 Ю 4 30 км н/о +8.6 +6.8 88 +5 +5 по сезону 1022.4 1019.2
22 18.10 Ю 4 45 км н/о +8.8 +7.0 88 +6 +6 тепло 1022.0 1018.8
23 18.10 Ю 4 35 км н/о +8.8 +7.3 90 +6 +6 тепло 1020.9 1017.7
00 19.10 Ю 4 35 км н/о +9.0 +7.1 88 +6 +6 по сезону 1019.9 1016.7
02 19.10 Ю 6 35 км н/о +8.9 +5.8 81 +5 +5 тепло 1018.5 1015.3
01 19.10 Ю 6 40 км н/о +9.0 +6.1 82 +5 +5 тепло 1019.3 1016.1
03 19.10 Ю 7 40 км н/о +9.3 +5.6 78 +5 +5 по сезону 1017.5 1014.4
04 19.10 Ю 7 40 км н/о +8.8 +5.4 79 +5 +5 тепло 1016.9 1013.7
05 19.10 Ю 7 35 км н/о +8.3 +5.7 84 +4 +4 по сезону 1015.5 1012.3
06 19.10 ЮЗ 8 40 км н/о +9.1 +6.0 81 +5 +5 по сезону 1015.3 1012.1 +8.1
08 19.10 Ю 7 23 км слаб. морось с дождем н/о +9.2 +6.9 86 +5 +5 тепло 1014.3 1011.1
07 19.10 Ю 7 19 км слаб. дождь н/о +8.5 +6.8 89 +4 +4 по сезону 1015.0 1011.8
09 19.10 Ю 8 9000 м морось с дождем н/о +9.6 +7.3 86 +5 +5 по сезону 1014.2 1011.0
10 19.10 Ю 7 21 км в посл. час дождь н/о +9.6 +7.9 89 +6 +6 тепло 1013.9 1010.7
11 19.10 ЮЗ 6 4800 м морось с дождем н/о +9.8 +8.1 89 +6 +6 по сезону 1014.4 1011.3
12 19.10 ЮЗ 7 16 км в посл. час дождь н/о +10.9 +8.9 87 +7 +7 по сезону 1015.1 1011.9 2
13 19.10 З 8
{13}
9000 м н/о +12.2 +8.8 80 +9 +9 тепло 1015.8 1012.6
15 19.10 З 8
{13}
22 км н/о +10.5 +6.8 78 +7 +7 по сезону 1017.6 1014.4
16 19.10 З 6 15 км н/о +9.7 +6.7 82 +6 +6 тепло 1018.3 1015.1
17 19.10 З 6 15 км н/о +8.9 +6.0 82 +5 +5 тепло 1019.1 1015.9
18 19.10 З 6 13 км н/о +8.3 +5.6 83 +4 +4 по сезону 1020.1 1016.9 +12.3 2
19 19.10 З 4 13 км в посл. час дождь н/о +7.2 +5.3 88 +4 +4 тепло 1020.6 1017.4
20 19.10 ЮЗ 5 12 км н/о +7.3 +5.9 91 +3 +3 по сезону 1020.6 1017.4
21 19.10 ЮЗ 5 12 км в посл. час дождь н/о +8.0 +6.9 93 +4 +4 по сезону 1021.4 1018.1
22 19.10 ЮЗ 5 11 км в посл. час дождь н/о +8.2 +7.2 93 +5 +5 тепло 1022.1 1018.9
23 19.10 ЮЗ 5 13 км н/о +8.5 +6.8 89 +5 +5 тепло 1022.2 1018.9
00 20.10 ЮЗ 5 12 км н/о +8.2 +7.0 92 +5 +5 по сезону 1021.8 1018.6 0.0
01 20.10 Ю 5 15 км н/о +8.2 +7.2 93 +5 +5 тепло 1021.6 1018.4
02 20.10 ЮЗ 4 16 км н/о +8.0 +6.6 91 +5 +5 тепло 1021.5 1018.3
03 20.10 Ю 5 21 км н/о +7.9 +6.3 90 +4 +4 по сезону 1021.1 1017.9
04 20.10 Ю 5 25 км н/о +7.9 +6.3 90 +4 +4 тепло 1020.2 1017.0
05 20.10 Ю 5 19 км н/о +8.6 +7.2 91 +5 +5 тепло 1019.7 1016.5
06 20.10 Ю 6 17 км н/о +8.8 +7.1 89 +5 +5 по сезону 1019.1 1015.8 +6.8 0.0
07 20.10 Ю 6 12 км слаб. ливневой дождь н/о +9.6 +7.5 87 +6 +6 тепло 1018.3 1015.1
08 20.10 Ю 6 16 км слаб. дождь н/о +9.9 +8.3 90 +6 +6 тепло 1018.2 1015.0
09 20.10 Ю 6 21 км в посл. час дождь н/о +10.8 +9.2 90 +7 +7 по сезону 1017.9 1014.7
10 20.10 Ю 7 17 км н/о +11.7 +10.1 90 +8 +8 тепло 1017.6 1014.4
11 20.10 Ю 7 28 км н/о +12.6 +10.9 89 +10 +10 тепло 1017.1 1013.9
12 20.10 Ю 7 35 км н/о +13.6 +11.4 87 +11 +11 тепло 1016.6 1013.5 0.2
13 20.10 ЮЗ 8 45 км в посл. час дождь н/о +14.3 +12.3 88 +12 +12 тепло 1016.2 1013.1
14 20.10 ЮЗ 8 40 км н/о +14.9 +12.7 87 +13 +13 тепло 1015.6 1012.5
15 20.10 ЮЗ 6 35 км н/о +15.1 +13.0 87 +13 +13 тепло 1016.2 1013.0
16 20.10 ЮЗ 5 24 км н/о +15.2 +13.0 87 +14 +14 тепло 1016.3 1013.2
17 20.10 ЮЗ 7 30 км н/о +15.4 +13.0 86 +14 +14 тепло 1016.6 1013.5
18 20.10 ЮЗ 3 17 км в посл. час дождь н/о +14.3 +12.7 90 +13 +13 тепло 1016.9 1013.8 +15.7 0.2
19 20.10 ЮЗ 5 4400 м морось с дождем н/о +14.0 +13.3 96 +12 +12 тепло 1017.3 1014.1
20 20.10 Ю 3 10 км слаб. морось с дождем н/о +13.5 +12.6 94 +12 +12 тепло 1017.2 1014.1
21 20.10 ЮЗ 5 3600 м дождь н/о +13.6 +13.3 98 +12 +12 тепло 1017.2 1014.0
22 20.10 З 5 2800 м дождь н/о +13.3 +13.0 98 +11 +11 тепло 1016.9 1013.7
23 20.10 З 9
{13}
4300 м дождь н/о +12.8 +12.5 98 +10 +10 тепло 1016.6 1013.5
00 21.10 З 8 24 км слаб. морось н/о +12.0 +11.6 97 +9 +9 тепло 1016.7 1013.6 3
01 21.10 З 6 7000 м в посл. час дождь н/о +10.9 +10.4 97 +8 +8 тепло 1016.6 1013.4
02 21.10 З 6 3800 м морось с дождем н/о +10.4 +10.0 97 +7 +7 тепло 1016.3 1013.2
03 21.10 З 8 3500 м дождь н/о +10.0 +9.5 97 +6 +6 по сезону 1016.9 1013.7
04 21.10 З 6 9000 м дождь н/о +9.0 +8.6 97 +5 +5 тепло 1016.3 1013.1
05 21.10 З 8 23 км в посл. час дождь н/о +9.3 +7.7 90 +5 +5 тепло 1016.1 1013.0
06 21.10 З 8 11 км слаб. морось с дождем н/о +9.7 +8.1 90 +6 +6 по сезону 1016.0 1012.8 +8.9 6
07 21.10 ЮЗ 7 15 км слаб. ливневой дождь н/о +9.3 +8.0 92 +5 +5 тепло 1016.0 1012.8
08 21.10 ЮЗ 8 19 км слаб. дождь н/о +9.5 +7.4 87 +5 +5 по сезону 1015.7 1012.5
09 21.10 ЮЗ 9 7000 м дождь н/о +8.9 +7.4 90 +4 +4 по сезону 1016.3 1013.1
10 21.10 ЮЗ 9 24 км слаб. дождь н/о +8.9 +7.5 91 +4 +4 тепло 1016.1 1012.9
11 21.10 ЮЗ 9
{13}
4700 м дождь н/о +9.2 +8.0 92 +4 +4 тепло 1016.2 1013.1

 

Местоположение метеостанции Kirkwall (Великобритания): широта 58.95 долгота -2.90 высота над уровнем моря 26 м.

В архиве по умолчанию представлена погода в Kirkwall за последнюю неделю. Архивные данные за месяц целиком и за предыдущие месяцы, начиная с января 2011 года, Вы можете получить, выбрав интересующий диапазон дат из раскрывающегося списка и нажав кнопку "Ввод!".


*Определитесь, кто Вы:
робот инопланетянин человек

Внимание! Время в таблицах - всемирное. Для получения местного времени необходимо прибавить поправку, которая в Kirkwall равна 0 ч.

Смотрите также архив погоды в соседних городах и на ближайших метеорологических станциях:

Погода в Wick (Великобритания) (57 км)
Погода в Sule Skerry (Великобритания) (87 км)
Погода в Fair Isle (Великобритания) (97 км)
Погода в Altnaharra (Великобритания) (116 км)
Погода в Foula (Великобритания) (138 км)
Погода в Lossiemouth (Великобритания) (139 км)
Погода в Tain Range (Великобритания) (140 км)
Погода в Kinloss (Великобритания) (150 км)
Погода в Lerwick (Великобритания) (163 км)
Погода в Loch Glascarnoch (Великобритания) (179 км)

Пояснения к столбцам:

Ветер - указаны скорость ветра в м/с - средняя за 10 мин, порывы в срок и между сроками (в фигурных скобках) и направление, откуда дует ветер: С - северный, СВ - северо-восточный, В - восточный, ЮВ - юго-восточный, Ю - южный, ЮЗ - юго-западный, З - западный, СЗ - северо-западный.
Видимость - горизонтальная дальность видимости в метрах или километрах. При видимости от 1 до 10 км при отсутствии осадков обычно наблюдается дымка, при ухудшении видимости до 1 км и менее - туман. В сухую погоду видимость может ухудшаться дымом, пылью или мглою.
Явления - указаны атмосферные явления, наблюдавшиеся в срок или в последний час перед сроком; фигурными скобками обозначены явления, наблюдавшиеся между сроками (за 1-3 часа до срока); квадратными скобками обозначены град или гололедные отложения с указанием их диаметра в мм.
Облачность - указаны через наклонную черту общая и нижняя облачность в баллах и высота нижней границы облаков в метрах; квадратными скобками обозначены формы облаков: Ci - перистые, Cs - перисто-слоистые, Cc - перисто-кучевые, Ac - высококучевые, As - высокослоистые, Sc - слоисто-кучевые, Ns - слоисто-дождевые, Cu - кучевые, Cb - кучево-дождевые. Подробнее классификацию облаков см. в Атласе облаков (PDF).
T - Температура воздуха - температура, измеренная на высоте 2 м над землей.
Td - Температура точки росы - температура, при понижении до которой содержащийся в воздухе водяной пар достигнет насыщения.
f - Относительная влажность воздуха - влажноcть воздуха, измеренная на высоте 2 м над землей.
Te - Эффективная температура - температура, которую ощущает одетый по сезону человек в тени. Характеристика душности погоды. При расчете учитывается влияние влажности воздуха и скорости ветра на теплоощущения человека.
Tes - Эффективная температура на солнце - температура, которую ощущает человек, с поправкой на солнечный нагрев. Характеристика знойности погоды. Зависит от высоты солнца над горизонтом, облачности и скорости ветра. Ночью, в пасмурную погоду, а также при ветре 12 м/с и более поправка равна нулю.
P - Атмосферное давление - приведенное к уровню моря атмосферное давление.
Po - Атмосферное давление - измеренное на уровне метеостанции атмосферное давление.
Tmin - Минимальная температура - минимум температуры воздуха на высоте 2 м над землей.
Tmax - Максимальная температура - максимум температуры воздуха на высоте 2 м над землей.
R - Количество осадков - Количество выпавших осадков за период времени, мм. При наведении курсора мыши на число - период времени, за который выпало указанное количество осадков.
R24 - Количество осадков - Количество выпавших осадков за 24 часа, мм.
S - Снежный покров - Высота снежного покрова, см. При наведении курсора мыши на число - состояние снежного покрова и степень покрытия местности в баллах.